Stations météo

réclame
Mon MeteoGroup
San Sebastian/Igueldo, Espagne (8027): Température de l'air & dewpoint: 08.08.2018 19:00:00 - 14.08.2018 19:00:00 (CEST)San Sebastian/Igueldo, Espagne (8027): Vitesse du vent: 08.08.2018 19:00:00 - 14.08.2018 19:00:00 (CEST)San Sebastian/Igueldo, Espagne (8027): Direction du vent: 08.08.2018 19:00:00 - 14.08.2018 19:00:00 (CEST)San Sebastian/Igueldo, Espagne (8027): reduced air pressure: 08.08.2018 19:00:00 - 14.08.2018 19:00:00 (CEST)San Sebastian/Igueldo, Espagne (8027): visibility: 08.08.2018 19:00:00 - 14.08.2018 19:00:00 (CEST)
Date & Time tt [°C] td [°C] ff [km/h] ff [knt] dd ppp [hPa] vv [km]
14.08.2018 19:00:00 - - - - - - -
14.08.2018 18:00:00 - - - - - - -
14.08.2018 17:00:00 21,4 15,7 16 9 NW 1022,1 50
14.08.2018 16:00:00 - - - - - - -
14.08.2018 15:00:00 - - - - - - -
14.08.2018 14:00:00 20,9 16,1 18 10 NNW 1022,1 50
14.08.2018 13:00:00 - - - - - - -
14.08.2018 12:00:00 - - - - - - -
14.08.2018 11:00:00 19,6 15,9 15 8 NW 1021,4 15
14.08.2018 10:00:00 - - - - - - -
14.08.2018 09:00:00 - - - - - - -
14.08.2018 08:00:00 17,6 16,3 8 4 WSW 1020,5 12
14.08.2018 07:00:00 - - - - - - -
14.08.2018 06:00:00 - - - - - - -
14.08.2018 05:00:00 17,8 16,1 16 9 W 1019,4 12
14.08.2018 04:00:00 - - - - - - -
14.08.2018 03:00:00 - - - - - - -
14.08.2018 02:00:00 17,2 16,2 18 10 W 1019,4 15
14.08.2018 01:00:00 - - - - - - -
14.08.2018 00:00:00 - - - - - - -
13.08.2018 23:00:00 18,2 17,6 22 12 W 1018,9 12
13.08.2018 22:00:00 - - - - - - -
13.08.2018 21:00:00 - - - - - - -
13.08.2018 20:00:00 19,8 17,2 26 14 WNW 1017,5 15
13.08.2018 19:00:00 - - - - - - -
13.08.2018 18:00:00 - - - - - - -
13.08.2018 17:00:00 20,4 16,8 28 15 WNW 1017,3 15
13.08.2018 16:00:00 - - - - - - -
13.08.2018 15:00:00 - - - - - - -
13.08.2018 14:00:00 20,2 17,2 24 13 WNW 1017,1 20
13.08.2018 13:00:00 - - - - - - -
13.08.2018 12:00:00 - - - - - - -
13.08.2018 11:00:00 17,4 17,4 22 12 WNW 1016,5 0,1
13.08.2018 10:00:00 - - - - - - -
13.08.2018 09:00:00 - - - - - - -
13.08.2018 08:00:00 18,0 18,0 16 9 WNW 1015,4 0,1
13.08.2018 07:00:00 - - - - - - -
13.08.2018 06:00:00 - - - - - - -
13.08.2018 05:00:00 19,1 18,6 13 7 WNW 1015,3 25
13.08.2018 04:00:00 - - - - - - -
13.08.2018 03:00:00 - - - - - - -
13.08.2018 02:00:00 19,2 17,3 5 3 S 1015,3 25
13.08.2018 01:00:00 - - - - - - -
13.08.2018 00:00:00 - - - - - - -
12.08.2018 23:00:00 20,0 18,7 5 3 SW 1015,6 25
12.08.2018 22:00:00 - - - - - - -
12.08.2018 21:00:00 - - - - - - -
12.08.2018 20:00:00 20,8 18,6 11 6 W 1014,6 40
12.08.2018 19:00:00 - - - - - - -
12.08.2018 18:00:00 - - - - - - -
12.08.2018 17:00:00 21,8 19,4 15 8 WNW 1014,1 25
12.08.2018 16:00:00 - - - - - - -
12.08.2018 15:00:00 - - - - - - -
12.08.2018 14:00:00 22,2 19,7 15 8 NW 1014,8 30
12.08.2018 13:00:00 - - - - - - -
12.08.2018 12:00:00 - - - - - - -
12.08.2018 11:00:00 22,4 19,9 5 3 NNW 1015,0 45
12.08.2018 10:00:00 - - - - - - -
12.08.2018 09:00:00 - - - - - - -
12.08.2018 08:00:00 19,6 18,1 8 4 WNW 1015,6 45
12.08.2018 07:00:00 - - - - - - -
12.08.2018 06:00:00 - - - - - - -
12.08.2018 05:00:00 19,4 18,4 4 2 WNW 1016,4 45
12.08.2018 04:00:00 - - - - - - -
12.08.2018 03:00:00 - - - - - - -
12.08.2018 02:00:00 19,6 18,6 8 4 WSW 1018,5 45
12.08.2018 01:00:00 - - - - - - -
12.08.2018 00:00:00 - - - - - - -
11.08.2018 23:00:00 20,6 18,7 16 9 W 1018,7 50
11.08.2018 22:00:00 - - - - - - -
11.08.2018 21:00:00 - - - - - - -
11.08.2018 20:00:00 22,6 18,8 9 5 WNW 1018,7 45
11.08.2018 19:00:00 - - - - - - -
11.08.2018 18:00:00 - - - - - - -
11.08.2018 17:00:00 23,4 18,3 13 7 NW 1019,8 40
11.08.2018 16:00:00 - - - - - - -
11.08.2018 15:00:00 - - - - - - -
11.08.2018 14:00:00 20,3 15,9 9 5 N 1021,9 35
11.08.2018 13:00:00 - - - - - - -
11.08.2018 12:00:00 - - - - - - -
11.08.2018 11:00:00 19,3 15,6 2 1 WNW 1023,3 45
11.08.2018 10:00:00 - - - - - - -
11.08.2018 09:00:00 - - - - - - -
11.08.2018 08:00:00 16,0 13,8 0 0 N 1023,9 35
11.08.2018 07:00:00 - - - - - - -
11.08.2018 06:00:00 - - - - - - -
11.08.2018 05:00:00 16,4 14,2 8 4 SE 1024,4 50
11.08.2018 04:00:00 - - - - - - -
11.08.2018 03:00:00 - - - - - - -
11.08.2018 02:00:00 18,3 15,6 5 3 E 1025,3 35
11.08.2018 01:00:00 - - - - - - -
11.08.2018 00:00:00 - - - - - - -
10.08.2018 23:00:00 18,1 14,8 8 4 NE 1025,3 50
10.08.2018 22:00:00 - - - - - - -
10.08.2018 21:00:00 - - - - - - -
10.08.2018 20:00:00 20,1 15,1 13 7 N 1024,3 50
10.08.2018 19:00:00 - - - - - - -
10.08.2018 18:00:00 - - - - - - -
10.08.2018 17:00:00 20,4 14,5 15 8 N 1024,3 50
10.08.2018 16:00:00 - - - - - - -
10.08.2018 15:00:00 - - - - - - -
10.08.2018 14:00:00 20,2 14,8 15 8 N 1024,4 50
10.08.2018 13:00:00 - - - - - - -
10.08.2018 12:00:00 - - - - - - -
10.08.2018 11:00:00 19,7 14,1 8 4 ENE 1025,0 40
10.08.2018 10:00:00 - - - - - - -
10.08.2018 09:00:00 - - - - - - -
10.08.2018 08:00:00 15,6 14,1 4 2 SSW 1025,0 40
10.08.2018 07:00:00 - - - - - - -
10.08.2018 06:00:00 - - - - - - -
10.08.2018 05:00:00 15,7 14,4 4 2 SSW 1024,8 40
10.08.2018 04:00:00 - - - - - - -
10.08.2018 03:00:00 - - - - - - -
10.08.2018 02:00:00 16,5 14,7 4 2 S 1025,0 30
10.08.2018 01:00:00 - - - - - - -
10.08.2018 00:00:00 - - - - - - -
09.08.2018 23:00:00 16,8 13,9 9 5 W 1024,3 40
09.08.2018 22:00:00 - - - - - - -
09.08.2018 21:00:00 - - - - - - -
09.08.2018 20:00:00 18,9 13,7 15 8 NW 1022,9 30
09.08.2018 19:00:00 - - - - - - -
09.08.2018 18:00:00 - - - - - - -
09.08.2018 17:00:00 20,0 15,2 21 11 WNW 1021,9 50
09.08.2018 16:00:00 - - - - - - -
09.08.2018 15:00:00 - - - - - - -
09.08.2018 14:00:00 19,6 14,8 24 13 W 1020,7 15
09.08.2018 13:00:00 - - - - - - -
09.08.2018 12:00:00 - - - - - - -
09.08.2018 11:00:00 17,0 14,6 16 9 W 1019,3 12
09.08.2018 10:00:00 - - - - - - -
09.08.2018 09:00:00 - - - - - - -
09.08.2018 08:00:00 16,2 13,7 24 13 WSW 1016,9 9
09.08.2018 07:00:00 - - - - - - -
09.08.2018 06:00:00 - - - - - - -
09.08.2018 05:00:00 16,6 14,2 29 16 WSW 1015,0 12
09.08.2018 04:00:00 - - - - - - -
09.08.2018 03:00:00 - - - - - - -
09.08.2018 02:00:00 19,0 18,7 11 6 SW 1011,8 9
09.08.2018 01:00:00 - - - - - - -
09.08.2018 00:00:00 - - - - - - -
08.08.2018 23:00:00 19,2 18,5 11 6 N 1012,2 5
08.08.2018 22:00:00 - - - - - - -
08.08.2018 21:00:00 - - - - - - -
08.08.2018 20:00:00 20,6 18,4 8 4 N 1011,9 11
08.08.2018 19:00:00 - - - - - - -

tt = Température de l'air
td = dewpoint
ff = Vitesse du vent
dd = Direction du vent
ppp = reduced air pressure
vv = visibility

stations d'obs. à proximité